Waarnemingen

Advertentie
Mijn weer
Hyeres, Frankrijk (7667): temperatuur & dauwpunt: 15.06.2018 02:00:00 - 21.06.2018 02:00:00 (CEST)Hyeres, Frankrijk (7667): temperatuur 5cm: 15.06.2018 02:00:00 - 21.06.2018 02:00:00 (CEST)Hyeres, Frankrijk (7667): windsnelheid & windstoten: 15.06.2018 02:00:00 - 21.06.2018 02:00:00 (CEST)Hyeres, Frankrijk (7667): windrichting: 15.06.2018 02:00:00 - 21.06.2018 02:00:00 (CEST)Hyeres, Frankrijk (7667): luchtdruk: 15.06.2018 02:00:00 - 21.06.2018 02:00:00 (CEST)Hyeres, Frankrijk (7667): zicht: 15.06.2018 02:00:00 - 21.06.2018 02:00:00 (CEST)Hyeres, Frankrijk (7667): neerslag: 15.06.2018 02:00:00 - 21.06.2018 02:00:00 (CEST)
Datum & Tijd tt [°C] td [°C] tt 5cm [°C] ff [km/u] ff [kn] fx [km/u] fx [kn] dd ppp [hPa] vv [km] rr [mm]
21.06.2018 02:00:00 24,8 15,7 20,3 9 5 16 8 NW 1017,9 43 0,0
21.06.2018 01:00:00 24,2 15,9 18,5 11 6 14 8 NNW 1018,1 45 0,0
21.06.2018 00:00:00 22,3 16,8 17,9 3 2 5 3 NNO 1018,5 37 0,0
20.06.2018 23:00:00 22,8 15,9 17,2 3 1 6 3 N 1018,7 19 0,0
20.06.2018 22:00:00 23,0 16,1 18,4 5 3 8 5 NNO 1018,3 20 0,0
20.06.2018 21:00:00 26,3 13,4 20,4 5 3 16 9 WNW 1018,3 51 0,0
20.06.2018 20:00:00 26,3 14,7 23,3 8 4 13 7 ZZW 1018,4 55 0,0
20.06.2018 19:00:00 29,4 15,1 30,1 6 4 10 5 ZZW 1018,2 19 0,0
20.06.2018 18:00:00 29,0 13,6 29,1 4 2 9 5 OZO 1018,5 20 0,0
20.06.2018 17:00:00 27,8 15,5 28,6 4 2 16 8 ZO 1018,8 30 0,0
20.06.2018 16:00:00 29,2 15,7 31,7 11 6 18 10 ZO 1019,1 14 0,0
20.06.2018 15:00:00 29,1 14,9 35,7 12 6 23 12 ZO 1019,5 6 0,0
20.06.2018 14:00:00 28,7 16,6 30,3 16 9 27 14 OZO 1019,8 7 0,0
20.06.2018 13:00:00 28,6 19,8 32,5 18 10 32 18 O 1020,1 8 0,0
20.06.2018 12:00:00 27,3 20,6 32,4 21 11 34 19 OZO 1020,0 18 0,0
20.06.2018 11:00:00 27,7 19,5 32,7 16 9 27 15 O 1019,8 19 0,0
20.06.2018 10:00:00 28,8 17,0 31,9 3 2 10 5 ZO 1019,6 20 0,0
20.06.2018 09:00:00 27,0 17,5 28,1 3 2 11 6 NO 1019,5 19 0,0
20.06.2018 08:00:00 23,7 19,0 20,3 4 2 8 5 N 1019,3 18 0,0
20.06.2018 07:00:00 21,0 17,2 15,4 5 3 10 5 N 1018,9 19 0,0
20.06.2018 06:00:00 18,7 16,5 15,1 5 3 9 5 N 1018,5 16 0,0
20.06.2018 05:00:00 18,8 16,4 16,1 8 4 13 7 NNO 1018,4 16 0,0
20.06.2018 04:00:00 20,7 17,1 15,2 6 3 11 6 NO 1018,1 15 0,0
20.06.2018 03:00:00 19,8 17,6 15,6 0 0 5 3 N 1018,4 14 0,0
20.06.2018 02:00:00 20,8 17,8 16,4 3 2 9 5 NNO 1018,6 15 0,0
20.06.2018 01:00:00 21,7 17,7 16,5 4 2 6 3 NNO 1018,8 14 0,0
20.06.2018 00:00:00 21,9 19,1 17,0 4 2 5 3 N 1018,8 12 0,0
19.06.2018 23:00:00 23,1 19,5 18,9 2 1 8 4 N 1018,7 14 0,0
19.06.2018 22:00:00 23,8 20,1 21,2 4 2 15 8 ZZW 1018,3 11 0,0
19.06.2018 21:00:00 25,4 18,1 23,0 10 5 17 9 ZZW 1017,9 25 0,0
19.06.2018 20:00:00 26,1 18,0 26,0 11 6 17 9 ZZW 1018,0 26 0,0
19.06.2018 19:00:00 26,7 18,0 27,2 9 5 16 9 ZZW 1018,4 20 0,0
19.06.2018 18:00:00 27,2 20,3 29,8 10 5 19 10 ZZW 1018,7 18 0,0
19.06.2018 17:00:00 27,9 21,0 34,2 11 6 20 11 ZZO 1018,9 15 0,0
19.06.2018 16:00:00 28,4 19,9 34,8 12 6 21 11 ZO 1019,1 13 0,0
19.06.2018 15:00:00 28,6 20,9 36,2 11 6 21 11 OZO 1019,2 13 0,0
19.06.2018 14:00:00 27,2 20,8 34,3 15 8 29 16 ZO 1019,2 15 0,0
19.06.2018 13:00:00 27,0 19,6 34,3 14 8 22 12 ZO 1019,5 19 0,0
19.06.2018 12:00:00 27,3 19,4 33,6 13 7 23 12 OZO 1019,3 22 0,0
19.06.2018 11:00:00 28,0 18,7 34,7 11 6 15 8 ZO 1019,3 20 0,0
19.06.2018 10:00:00 28,2 16,8 33,1 5 3 11 6 ZO 1019,2 19 0,0
19.06.2018 09:00:00 27,3 17,8 29,3 4 2 8 4 N 1018,9 20 0,0
19.06.2018 08:00:00 25,0 17,5 22,0 3 1 9 5 N 1018,4 16 0,0
19.06.2018 07:00:00 22,4 16,4 16,1 4 2 11 6 N 1018,0 25 0,0
19.06.2018 06:00:00 19,8 15,6 15,5 5 3 10 5 N 1017,7 34 0,0
19.06.2018 05:00:00 19,4 15,9 14,5 5 3 8 4 N 1017,3 35 0,0
19.06.2018 04:00:00 19,0 16,0 15,2 5 3 10 6 NO 1017,2 24 0,0
19.06.2018 03:00:00 19,2 16,2 15,5 6 4 9 5 N 1016,9 26 0,0
19.06.2018 02:00:00 20,0 16,8 15,5 4 2 7 4 N 1016,9 25 0,0
19.06.2018 01:00:00 20,6 16,8 17,1 3 2 9 5 NO 1017,0 26 0,0
19.06.2018 00:00:00 22,9 18,0 18,4 3 2 6 3 OZO 1017,1 26 0,0
18.06.2018 23:00:00 22,0 18,2 17,7 4 2 6 3 WNW 1017,0 17 0,0
18.06.2018 22:00:00 23,1 17,6 19,7 0 0 8 4 N 1016,6 21 0,0
18.06.2018 21:00:00 25,5 16,9 22,6 5 3 11 6 Z 1016,3 35 0,0
18.06.2018 20:00:00 27,5 15,8 26,7 8 4 15 8 ZW 1016,4 45 0,0
18.06.2018 19:00:00 28,5 14,3 27,5 7 4 11 6 ZZW 1016,3 36 0,0
18.06.2018 18:00:00 27,6 14,6 27,2 5 3 12 7 WZW 1016,5 36 0,0
18.06.2018 17:00:00 28,6 14,4 29,6 6 4 19 10 ZZW 1016,6 22 0,0
18.06.2018 16:00:00 27,9 14,9 33,8 13 7 21 11 ZZW 1016,6 16 0,0
18.06.2018 15:00:00 27,3 15,6 34,2 13 7 21 12 ZW 1016,7 17 0,0
18.06.2018 14:00:00 26,9 15,3 34,4 13 7 22 12 ZZW 1016,8 21 0,0
18.06.2018 13:00:00 26,9 16,5 35,5 10 6 20 11 Z 1016,7 20 0,0
18.06.2018 12:00:00 26,4 16,3 35,1 11 6 17 9 Z 1016,3 19 0,0
18.06.2018 11:00:00 26,9 17,1 33,9 9 5 14 7 ZZO 1016,1 32 0,0
18.06.2018 10:00:00 26,4 16,6 30,3 8 4 20 11 NNO 1016,0 20 0,0
18.06.2018 09:00:00 24,4 15,3 25,6 14 7 22 12 N 1015,5 20 0,0
18.06.2018 08:00:00 22,7 14,0 20,6 11 6 22 12 NNW 1015,3 22 0,0
18.06.2018 07:00:00 21,0 13,2 15,3 7 4 22 12 N 1015,0 25 0,0
18.06.2018 06:00:00 18,9 13,1 14,6 12 7 16 9 NNW 1014,4 46 0,0
18.06.2018 05:00:00 18,6 13,5 13,7 8 4 11 6 NNO 1014,0 42 0,0
18.06.2018 04:00:00 18,4 14,1 13,7 7 4 10 6 N 1014,0 40 0,0
18.06.2018 03:00:00 21,3 14,0 14,8 2 1 13 7 WZW 1013,8 47 0,0
18.06.2018 02:00:00 21,8 14,2 16,9 4 2 15 8 W 1013,9 47 0,0
18.06.2018 01:00:00 21,8 14,9 15,0 9 5 13 7 WNW 1014,1 37 0,0
18.06.2018 00:00:00 20,8 18,0 14,7 3 2 10 5 WNW 1014,6 19 0,0
17.06.2018 23:00:00 20,9 18,3 16,4 8 4 10 5 N 1014,4 18 0,0
17.06.2018 22:00:00 23,1 18,6 18,0 4 2 10 5 Z 1014,2 4,8 0,0
17.06.2018 21:00:00 23,8 18,7 21,5 5 3 8 4 ZO 1013,9 19 0,0
17.06.2018 20:00:00 25,0 18,4 23,3 3 2 20 11 NO 1013,7 20 0,0
17.06.2018 19:00:00 28,4 17,9 27,5 11 6 21 11 ONO 1013,4 57 0,0
17.06.2018 18:00:00 28,3 17,8 28,0 12 6 22 12 ZW 1013,4 22 0,0
17.06.2018 17:00:00 27,5 17,1 31,1 13 7 21 11 ZW 1013,9 20 0,0
17.06.2018 16:00:00 28,3 18,1 34,2 10 5 18 10 ZO 1014,4 19 0,0
17.06.2018 15:00:00 27,1 17,8 33,7 13 7 22 12 ZO 1014,6 20 0,0
17.06.2018 14:00:00 28,1 17,0 35,2 13 7 19 11 ZO 1014,7 20 0,0
17.06.2018 13:00:00 27,1 17,0 34,7 12 6 22 12 ZZW 1014,6 20 0,0
17.06.2018 12:00:00 26,1 17,5 33,7 15 8 23 12 ZZW 1014,3 20 0,0
17.06.2018 11:00:00 25,4 17,3 33,3 10 5 18 10 ZZW 1014,2 40 0,0
17.06.2018 10:00:00 26,1 17,2 28,5 6 3 14 8 WNW 1014,2 42 0,0
17.06.2018 09:00:00 24,2 16,2 26,6 9 5 13 7 NW 1014,1 43 0,0
17.06.2018 08:00:00 23,3 17,1 18,8 0 0 5 3 N 1013,7 20 0,0
17.06.2018 07:00:00 18,3 16,1 13,2 0 0 8 4 N 1013,6 19 0,0
17.06.2018 06:00:00 17,2 14,8 13,3 4 2 14 8 N 1013,1 25 0,0
17.06.2018 05:00:00 17,6 15,4 12,7 4 2 9 5 N 1012,8 24 0,0
17.06.2018 04:00:00 17,9 16,2 13,1 6 3 9 5 NNO 1012,5 18 0,2
17.06.2018 03:00:00 18,1 16,6 13,0 5 3 8 4 NW 1012,5 15 0,0
17.06.2018 02:00:00 18,6 17,3 13,5 6 3 9 5 NW 1012,8 8 0,0
17.06.2018 01:00:00 19,7 17,1 14,2 3 2 8 4 WNW 1013,0 15 0,0
17.06.2018 00:00:00 20,9 18,5 16,5 2 1 4 2 ZZW 1013,3 14 0,0
16.06.2018 23:00:00 21,5 18,7 17,4 0 0 13 7 N 1013,1 16 0,0
16.06.2018 22:00:00 22,1 18,9 19,8 10 5 25 13 ZZW 1013,0 22 0,0
16.06.2018 21:00:00 23,3 18,6 21,2 13 7 19 10 ZW 1012,7 27 0,0
16.06.2018 20:00:00 24,8 18,7 24,3 7 4 10 5 ZZW 1012,4 22 0,0
16.06.2018 19:00:00 25,4 19,5 27,2 6 4 14 8 ZZW 1012,4 27 0,0
16.06.2018 18:00:00 25,6 20,2 29,8 7 4 14 8 Z 1012,6 20 0,0
16.06.2018 17:00:00 25,0 20,3 28,3 10 5 15 8 ZO 1012,6 14 0,0
16.06.2018 16:00:00 24,6 20,5 29,8 9 5 28 15 ZO 1013,0 11 0,0
16.06.2018 15:00:00 25,5 18,2 32,6 13 7 29 16 OZO 1013,0 11 0,0
16.06.2018 14:00:00 25,5 18,2 31,6 19 11 32 17 ZO 1013,2 13 0,0
16.06.2018 13:00:00 24,6 19,4 31,2 18 10 31 17 OZO 1013,0 19 0,0
16.06.2018 12:00:00 24,4 19,7 30,1 20 11 32 18 ZO 1012,6 20 0,0
16.06.2018 11:00:00 25,4 18,6 32,7 9 5 15 8 ZZO 1012,7 45 0,0
16.06.2018 10:00:00 24,4 17,4 30,1 7 4 12 7 ZZO 1012,6 20 0,0
16.06.2018 09:00:00 24,0 16,8 24,6 2 1 10 5 O 1012,5 29 0,0
16.06.2018 08:00:00 20,5 16,3 15,1 4 2 8 4 NNO 1012,1 20 0,0
16.06.2018 07:00:00 16,3 14,3 11,7 5 3 7 4 NNO 1012,1 22 0,0
16.06.2018 06:00:00 15,2 13,6 11,5 4 2 9 5 NNO 1011,7 18 0,0
16.06.2018 05:00:00 15,4 13,6 11,5 6 3 7 4 NNO 1011,6 20 0,0
16.06.2018 04:00:00 15,9 13,9 12,0 5 3 11 6 NNO 1011,7 35 0,0
16.06.2018 03:00:00 16,4 14,2 12,4 8 4 10 5 NNO 1011,6 31 0,0
16.06.2018 02:00:00 17,5 14,6 13,1 3 2 8 4 NO 1011,6 28 0,0
16.06.2018 01:00:00 18,3 15,0 12,7 4 2 7 4 W 1011,6 28 0,0
16.06.2018 00:00:00 19,5 15,8 13,7 4 2 6 3 NNO 1011,6 29 0,0
15.06.2018 23:00:00 20,2 16,2 15,0 3 2 9 5 O 1011,4 32 0,0
15.06.2018 22:00:00 22,5 15,6 18,3 5 3 19 11 Z 1011,2 18 0,0
15.06.2018 21:00:00 23,7 14,4 20,6 10 5 27 15 ZZW 1010,9 57 0,0
15.06.2018 20:00:00 25,7 12,5 25,4 18 10 31 17 WZW 1010,7 46 0,0
15.06.2018 19:00:00 24,4 17,4 24,6 13 7 28 15 ZZW 1010,8 19 0,0
15.06.2018 18:00:00 26,5 14,6 27,6 19 10 29 16 ZW 1010,8 53 0,0
15.06.2018 17:00:00 26,9 13,6 28,3 15 8 32 17 ZW 1011,1 20 0,0
15.06.2018 16:00:00 25,1 14,2 29,3 25 13 34 19 ZW 1011,2 25 0,0
15.06.2018 15:00:00 25,1 15,7 31,1 23 12 33 18 ZW 1011,4 31 0,0
15.06.2018 14:00:00 25,5 16,1 32,2 13 7 25 14 ZZW 1011,7 20 0,0
15.06.2018 13:00:00 25,7 16,3 33,5 13 7 24 13 ZW 1011,7 60 0,0
15.06.2018 12:00:00 25,7 16,5 33,5 14 7 19 10 ZZO 1011,7 49 0,0
15.06.2018 11:00:00 25,6 14,7 34,9 8 4 14 8 Z 1011,4 20 0,0
15.06.2018 10:00:00 25,5 14,9 30,7 8 4 13 7 ZO 1011,2 20 0,0
15.06.2018 09:00:00 25,2 14,9 26,3 4 2 12 6 NO 1010,8 46 0,0
15.06.2018 08:00:00 22,6 13,6 18,1 8 5 16 9 NNW 1010,2 24 0,0
15.06.2018 07:00:00 19,9 12,9 13,9 11 6 20 11 NNW 1010,0 30 0,0
15.06.2018 06:00:00 17,5 12,4 11,9 11 6 19 10 NW 1009,8 30 0,0
15.06.2018 05:00:00 16,9 12,8 12,0 7 4 11 6 NNW 1009,5 39 0,0
15.06.2018 04:00:00 17,8 13,1 13,2 6 3 13 7 NNO 1009,1 49 0,0
15.06.2018 03:00:00 19,7 12,9 12,7 11 6 20 11 NNW 1009,2 50 0,0
15.06.2018 02:00:00 17,4 13,7 12,9 4 2 8 4 N 1009,2 51 0,0

tt = temperatuur
td = dauwpunt
tt 5cm = temperatuur 5cm
ff = windsnelheid
fx = windstoten
dd = windrichting
ppp = luchtdruk
vv = zicht
rr = neerslag

Weerstations in de omgeving